Weather History for Cape Girardeau, MO

Change the Weather History Date:

Saturday, December 29, 2012

  Actual Average Record
Temperature  
Mean Temperature 23 °F 33 °F  
Max Temperature 33 °F 42 °F 70 °F (1984)
Min Temperature 13 °F 25 °F -1 °F (1983)
Degree Days  
Heating Degree Days 42 32  
Month to date heating degree days 611 836  
Since 1 July heating degree days 1550 1687  
Cooling Degree Days 0 0  
Month to date cooling degree days 0 0  
Year to date cooling degree days 1784 1453  
Moisture  
Dew Point 25 °F    
Average Humidity 82    
Maximum Humidity 92    
Minimum Humidity 72    
Precipitation  
Precipitation T in 0.12 in 1.42 in (1962)
Month to date precipitation 1.63 4.01  
Year to date precipitation 26.91 46.57  
Sea Level Pressure  
Sea Level Pressure 30.15 in    
Wind  
Wind Speed 9 mph (WNW)    
Max Wind Speed 22 mph    
Max Gust Speed 30 mph    
Visibility 6 miles    
Events Snow    
T = Trace of Precipitation, MM = Missing Value Source: NWS Daily Summary

Daily Weather History Graph

Daily Weather History Graph

Search for Another Location

Airport:

Trip Planner

Search our weather history database for the weather conditions in past years. The results will help you decide how hot, cold, wet, or windy it might be!

Date:

Astronomy

Dec. 29, 2012 Rise Set
Actual Time 7:11 AM CST 4:49 PM CST
Civil Twilight 6:42 AM CST 5:18 PM CST
Nautical Twilight 6:09 AM CST 5:51 PM CST
Astronomical Twilight 5:38 AM CST 6:23 PM CST
Moon 6:20 PM CST (12/29) 7:47 AM CST (12/29)
Length of Visible Light 10h 36m
Length of Day
9h 38m
Full, 98% of the Moon is Illuminated
Dec 29
Full
Jan 4
Last Quarter
Jan 11
New
Jan 18
First Quarter
Jan 26
Full

Hourly Weather History & Observations

Time (CST) Temp. Windchill Dew Point Humidity Pressure Visibility Wind Dir Wind Speed Gust Speed Precip Events Conditions
12:53 AM 33.1 °F 24.9 °F 30.9 °F 92% 29.91 in 4.0 mi WNW 10.4 mph - 0.00 in Snow Light Snow
1:21 AM 33.8 °F 25.3 °F 30.2 °F 87% 29.91 in 7.0 mi WNW 11.5 mph - 0.00 in   Overcast
1:51 AM 33.8 °F 27.0 °F 30.2 °F 87% 29.92 in 7.0 mi NW 8.1 mph - 0.00 in   Overcast
1:53 AM 33.1 °F 25.5 °F 30.9 °F 92% 29.93 in 7.0 mi NW 9.2 mph - 0.00 in   Overcast
2:53 AM 33.1 °F 26.9 °F 30.9 °F 92% 29.96 in 7.0 mi WNW 6.9 mph - N/A   Overcast
3:53 AM 33.1 °F 25.5 °F 30.9 °F 92% 29.96 in 7.0 mi WNW 9.2 mph - N/A   Overcast
4:53 AM 33.1 °F 24.9 °F 30.0 °F 89% 29.98 in 6.0 mi WNW 10.4 mph - N/A   Overcast
5:30 AM 33.8 °F 24.8 °F 30.2 °F 87% 29.99 in 6.0 mi WNW 12.7 mph - N/A   Overcast
5:53 AM 33.1 °F 24.9 °F 30.0 °F 89% 30.02 in 6.0 mi WNW 10.4 mph - N/A   Overcast
6:19 AM 33.8 °F 25.3 °F 28.4 °F 81% 30.02 in 6.0 mi WNW 11.5 mph - N/A   Overcast
6:53 AM 32.0 °F 23.0 °F 28.9 °F 88% 30.04 in 6.0 mi WNW 11.5 mph - N/A   Overcast
7:30 AM 32.0 °F 23.6 °F 28.4 °F 87% 30.05 in 5.0 mi WNW 10.4 mph - N/A   Overcast
7:53 AM 32.0 °F 22.5 °F 28.9 °F 88% 30.07 in 4.0 mi WNW 12.7 mph - N/A   Overcast
8:43 AM 30.2 °F 19.8 °F 28.4 °F 93% 30.10 in 2.5 mi WNW 13.8 mph - 0.00 in Snow Light Snow
8:53 AM 30.9 °F 19.8 °F 28.0 °F 89% 30.11 in 2.0 mi WNW 16.1 mph - 0.00 in Snow Light Snow
9:15 AM 30.2 °F 18.9 °F 26.6 °F 86% 30.12 in 2.0 mi WNW 16.1 mph - 0.00 in Snow Light Snow
9:43 AM 30.2 °F 18.5 °F 26.6 °F 86% 30.13 in 3.0 mi WNW 17.3 mph - 0.00 in Snow Light Snow
9:53 AM 30.0 °F 19.5 °F 26.1 °F 85% 30.14 in 3.0 mi NW 13.8 mph - 0.00 in Snow Light Snow
10:07 AM 30.2 °F 19.8 °F 26.6 °F 86% 30.14 in 3.0 mi WNW 13.8 mph - 0.00 in   Overcast
10:38 AM 30.2 °F 18.9 °F 26.6 °F 86% 30.15 in 5.0 mi WNW 16.1 mph - 0.00 in   Haze
10:53 AM 30.0 °F 19.1 °F 26.1 °F 85% 30.17 in 5.0 mi WNW 15.0 mph - 0.00 in   Overcast
11:10 AM 30.2 °F 18.9 °F 26.6 °F 86% 30.16 in 5.0 mi WNW 16.1 mph - N/A   Haze
11:53 AM 30.9 °F 19.4 °F 25.0 °F 79% 30.17 in 5.0 mi NW 17.3 mph - N/A   Haze
12:26 PM 30.2 °F 17.8 °F 24.8 °F 80% 30.16 in 5.0 mi NW 19.6 mph - N/A   Haze
12:53 PM 30.9 °F 19.4 °F 23.0 °F 72% 30.18 in 6.0 mi NW 17.3 mph 26.5 mph N/A   Haze
1:53 PM 30.9 °F 20.2 °F 24.1 °F 76% 30.19 in 6.0 mi NW 15.0 mph 20.7 mph N/A   Haze
2:53 PM 30.0 °F 18.7 °F 24.1 °F 79% 30.22 in 7.0 mi NW 16.1 mph - N/A   Overcast
3:37 PM 28.4 °F 19.7 °F 21.2 °F 74% 30.24 in 8.0 mi NW 9.2 mph - N/A   Overcast
3:48 PM 28.4 °F 19.1 °F 21.2 °F 74% 30.25 in 8.0 mi NW 10.4 mph - N/A   Overcast
3:53 PM 28.9 °F 20.4 °F 21.9 °F 75% 30.26 in 8.0 mi NW 9.2 mph - N/A   Overcast
4:53 PM 26.6 °F 18.2 °F 21.2 °F 80% 30.29 in 8.0 mi West 8.1 mph - N/A   Mostly Cloudy
5:04 PM 26.6 °F 19.1 °F 21.2 °F 80% 30.29 in 9.0 mi West 6.9 mph - N/A   Mostly Cloudy
5:12 PM 24.8 °F 16.9 °F 19.4 °F 80% 30.29 in 10.0 mi WNW 6.9 mph - N/A   Scattered Clouds
5:53 PM 19.9 °F 13.4 °F 16.0 °F 85% 30.32 in 9.0 mi West 4.6 mph - N/A   Clear
6:53 PM 19.9 °F 11.1 °F 16.0 °F 85% 30.35 in 9.0 mi SW 6.9 mph - N/A   Clear
7:53 PM 18.0 °F 11.1 °F 15.1 °F 88% 30.37 in 7.0 mi SW 4.6 mph - N/A   Clear
8:53 PM 18.0 °F - 15.1 °F 88% 30.39 in 6.0 mi Calm Calm - N/A   Clear
9:53 PM 19.9 °F - 17.1 °F 89% 30.40 in 5.0 mi Calm Calm - N/A   Clear
10:53 PM 15.1 °F - 12.0 °F 88% 30.40 in 3.0 mi Calm Calm - N/A   Clear
11:53 PM 15.1 °F - 12.0 °F 88% 30.40 in 6.0 mi Calm Calm - N/A   Clear